Weather History for Boone, NC

Change the Weather History Date:

Thursday, March 6, 2014

  Actual Average (KGEV) Record (KGEV)
Temperature  
Mean Temperature 28 °F -  
Max Temperature 33 °F 53 °F 66 °F (1989)
Min Temperature 24 °F 31 °F 14 °F (1978)
Degree Days  
Heating Degree Days 36    
Moisture  
Dew Point 19 °F    
Average Humidity 68    
Maximum Humidity 100    
Minimum Humidity 46    
Precipitation  
Precipitation 0.27 in - - ()
Sea Level Pressure  
Sea Level Pressure 30.16 in    
Wind  
Wind Speed 3 mph (ESE)    
Max Wind Speed 10 mph    
Max Gust Speed -    
Visibility 8 miles    
Events Snow    
Averages and records for this station are not official NWS values.
T = Trace of Precipitation, MM = Missing Value Source: NWS Daily Summary

Daily Weather History Graph

Daily Weather History Graph

Search for Another Location

Airport:

Trip Planner

Search our weather history database for the weather conditions in past years. The results will help you decide how hot, cold, wet, or windy it might be!

Date:

Astronomy

Mar. 06, 2014 Rise Set
Actual Time 6:50 AM EST 6:26 PM EST
Civil Twilight 6:24 AM EST 6:51 PM EST
Nautical Twilight 5:54 AM EST 7:21 PM EST
Astronomical Twilight 5:24 AM EST 7:51 PM EST
Moon 10:07 AM EST (3/6) No Moon Set
Length of Visible Light 12h 27m
Length of Day
11h 35m
Waxing Crescent, 32% of the Moon is Illuminated
Mar 6
Waxing Crescent
Mar 8
First Quarter
Mar 16
Full
Mar 23
Last Quarter
Mar 30
New

Hourly Weather History & Observations

Time (EST) Temp. Windchill Dew Point Humidity Pressure Visibility Wind Dir Wind Speed Gust Speed Precip Events Conditions
12:15 AM 28.4 °F - 25.9 °F 90% 30.18 in 10.0 mi Calm Calm - N/A   Clear
12:35 AM 28.0 °F - 25.5 °F 90% 30.19 in 10.0 mi Calm Calm - N/A   Clear
12:55 AM 28.2 °F 24.4 °F 27.1 °F 96% 30.18 in 10.0 mi East 3.5 mph - N/A   Clear
1:15 AM 27.9 °F 21.5 °F 26.2 °F 94% 30.18 in 10.0 mi ESE 5.8 mph - N/A   Clear
1:35 AM 28.9 °F 21.9 °F 23.5 °F 80% 30.18 in 10.0 mi ESE 6.9 mph - N/A   Clear
1:55 AM 29.3 °F 24.3 °F 22.1 °F 75% 30.19 in 10.0 mi ESE 4.6 mph - N/A   Clear
2:15 AM 29.3 °F 23.2 °F 21.0 °F 71% 30.21 in 10.0 mi SE 5.8 mph - N/A   Clear
2:35 AM 29.1 °F 24.1 °F 18.7 °F 65% 30.21 in 10.0 mi SE 4.6 mph - N/A   Clear
2:55 AM 28.8 °F 23.7 °F 18.0 °F 64% 30.21 in 10.0 mi ESE 4.6 mph - N/A   Clear
3:15 AM 28.0 °F - 18.0 °F 66% 30.21 in 10.0 mi Calm Calm - N/A   Clear
3:35 AM 27.7 °F - 17.4 °F 65% 30.20 in 10.0 mi Calm Calm - N/A   Clear
3:55 AM 27.5 °F 23.6 °F 17.1 °F 65% 30.20 in 10.0 mi East 3.5 mph - N/A   Clear
4:15 AM 27.0 °F 23.0 °F 17.4 °F 67% 30.20 in 10.0 mi ESE 3.5 mph - N/A   Clear
4:35 AM 26.6 °F - 16.7 °F 66% 30.20 in 10.0 mi Calm Calm - N/A   Clear
4:55 AM 25.9 °F 21.7 °F 16.0 °F 66% 30.20 in 10.0 mi East 3.5 mph - N/A   Clear
5:15 AM 25.7 °F 21.5 °F 15.4 °F 65% 30.20 in 10.0 mi ESE 3.5 mph - N/A   Clear
5:35 AM 25.5 °F 21.3 °F 15.1 °F 65% 30.20 in 10.0 mi ESE 3.5 mph - N/A   Clear
5:55 AM 25.9 °F 20.3 °F 14.7 °F 63% 30.21 in 10.0 mi ESE 4.6 mph - N/A   Clear
6:15 AM 25.5 °F 21.3 °F 14.9 °F 64% 30.21 in 10.0 mi East 3.5 mph - N/A   Clear
6:35 AM 26.1 °F 21.9 °F 13.6 °F 59% 30.22 in 10.0 mi East 3.5 mph - N/A   Clear
6:55 AM 25.7 °F 21.5 °F 14.2 °F 62% 30.22 in 10.0 mi ESE 3.5 mph - N/A   Clear
7:15 AM 24.8 °F 14.6 °F 14.2 °F 64% 30.21 in 10.0 mi ESE 10.4 mph - N/A   Clear
7:35 AM 24.4 °F 18.6 °F 13.6 °F 64% 30.23 in 10.0 mi ESE 4.6 mph - N/A   Clear
7:55 AM 24.8 °F 16.9 °F 12.7 °F 60% 30.23 in 10.0 mi East 6.9 mph - N/A   Clear
8:15 AM 25.2 °F 19.5 °F 12.7 °F 59% 30.23 in 10.0 mi East 4.6 mph - N/A   Clear
8:35 AM 25.5 °F 18.7 °F 12.4 °F 58% 30.25 in 10.0 mi East 5.8 mph - N/A   Clear
8:55 AM 26.2 °F 19.6 °F 13.1 °F 58% 30.25 in 10.0 mi East 5.8 mph - N/A   Clear
9:15 AM 26.4 °F 18.0 °F 11.8 °F 54% 30.24 in 10.0 mi ESE 8.1 mph - N/A   Clear
9:35 AM 26.8 °F 18.5 °F 11.8 °F 53% 30.24 in 10.0 mi ESE 8.1 mph - N/A   Clear
9:55 AM 27.3 °F 20.9 °F 11.8 °F 52% 30.25 in 10.0 mi East 5.8 mph - N/A   Clear
10:15 AM 28.4 °F 24.6 °F 12.6 °F 52% 30.25 in 10.0 mi East 3.5 mph - N/A   Clear
10:35 AM 28.9 °F 22.8 °F 12.2 °F 50% 30.23 in 10.0 mi ESE 5.8 mph - N/A   Clear
10:55 AM 29.3 °F 24.3 °F 12.0 °F 49% 30.22 in 10.0 mi East 4.6 mph - N/A   Clear
11:15 AM 30.2 °F 25.4 °F 12.7 °F 48% 30.21 in 10.0 mi ESE 4.6 mph - N/A   Clear
11:35 AM 30.4 °F 24.5 °F 13.1 °F 49% 30.21 in 10.0 mi ESE 5.8 mph - N/A   Clear
11:55 AM 31.3 °F 23.9 °F 13.5 °F 48% 30.20 in 10.0 mi ESE 8.1 mph - N/A   Clear
12:15 PM 31.3 °F 26.6 °F 12.6 °F 46% 30.20 in 10.0 mi ESE 4.6 mph - N/A   Clear
12:35 PM 32.0 °F 27.5 °F 13.8 °F 47% 30.19 in 10.0 mi ESE 4.6 mph - N/A   Clear
12:55 PM 32.2 °F 27.7 °F 13.6 °F 46% 30.18 in 10.0 mi ESE 4.6 mph - N/A   Clear
1:15 PM 32.4 °F 29.1 °F 13.8 °F 46% 30.17 in 10.0 mi ESE 3.5 mph - N/A   Clear
1:35 PM 33.1 °F 26.9 °F 14.2 °F 46% 30.16 in 10.0 mi SE 6.9 mph - N/A   Clear
1:55 PM 32.4 °F 26.9 °F 13.8 °F 46% 30.14 in 10.0 mi SE 5.8 mph - N/A   Clear
2:15 PM 32.9 °F 26.7 °F 14.4 °F 47% 30.14 in 10.0 mi ESE 6.9 mph - N/A   Clear
2:35 PM 32.5 °F 29.3 °F 14.4 °F 47% 30.14 in 10.0 mi East 3.5 mph - N/A   Clear
2:55 PM 33.1 °F 30.0 °F 15.1 °F 48% 30.12 in 10.0 mi ESE 3.5 mph - N/A   Clear
3:15 PM 33.4 °F 28.1 °F 15.3 °F 47% 30.12 in 10.0 mi SE 5.8 mph - N/A   Clear
3:35 PM 33.4 °F 27.3 °F 15.1 °F 47% 30.11 in 10.0 mi ESE 6.9 mph - N/A   Clear
3:55 PM 33.1 °F 27.7 °F 15.1 °F 48% 30.11 in 10.0 mi ESE 5.8 mph - N/A   Clear
4:15 PM 32.9 °F 28.5 °F 14.7 °F 47% 30.11 in 10.0 mi ESE 4.6 mph - N/A   Clear
4:35 PM 32.5 °F 28.1 °F 15.3 °F 49% 30.12 in 10.0 mi ESE 4.6 mph - N/A   Clear
4:55 PM 32.7 °F - 15.6 °F 49% 30.10 in 10.0 mi Calm Calm - N/A   Clear
5:15 PM 32.9 °F 28.5 °F 16.5 °F 51% 30.11 in 10.0 mi SE 4.6 mph - N/A   Clear
5:35 PM 32.9 °F 28.5 °F 17.2 °F 53% 30.12 in 10.0 mi ESE 4.6 mph - N/A   Clear
5:55 PM 32.5 °F 26.2 °F 18.1 °F 55% 30.13 in 10.0 mi ESE 6.9 mph - N/A   Clear
6:15 PM 32.0 °F 27.5 °F 18.3 °F 57% 30.12 in 10.0 mi ESE 4.6 mph - N/A   Clear
6:35 PM 31.1 °F 23.7 °F 19.0 °F 61% 30.13 in 7.0 mi ESE 8.1 mph - N/A Snow Light Snow
6:55 PM 28.4 °F - 23.5 °F 82% 30.12 in 1.2 mi Calm Calm - N/A Snow Light Snow
7:15 PM 28.0 °F - 24.6 °F 87% 30.11 in 1.5 mi Calm Calm - N/A Snow Light Snow
7:35 PM 27.9 °F - 27.5 °F 99% 30.10 in 1.2 mi Calm Calm - N/A Snow Light Snow
7:55 PM 27.9 °F - 27.7 °F 99% 30.10 in 1.2 mi Calm Calm - 0.01 in Snow Light Snow
8:15 PM 28.0 °F - 28.0 °F 100% 30.10 in 2.0 mi Calm Calm - 0.01 in Snow Light Snow
8:35 PM 28.4 °F - 28.4 °F 100% 30.10 in 3.0 mi Calm Calm - 0.01 in Snow Light Snow
8:55 PM 28.4 °F - 28.4 °F 100% 30.10 in 1.2 mi Calm Calm - 0.03 in Snow Light Snow
9:15 PM 28.8 °F - 28.8 °F 100% 30.09 in 1.2 mi Calm Calm - 0.02 in Snow Light Snow
9:35 PM 29.1 °F - 29.1 °F 100% 30.09 in 1.5 mi Calm Calm - 0.06 in Snow Light Snow
9:55 PM 29.1 °F - 29.1 °F 100% 30.09 in 1.2 mi Calm Calm - 0.08 in Snow Light Snow
10:15 PM 29.7 °F - 29.7 °F 100% 30.08 in 1.2 mi Calm Calm - 0.02 in Snow Snow
10:35 PM 30.0 °F - 30.0 °F 100% 30.07 in 1.5 mi Calm Calm - 0.05 in Snow Light Snow
10:55 PM 30.6 °F 23.8 °F 30.6 °F 100% 30.06 in 1.2 mi East 6.9 mph - 0.08 in Snow Light Snow
11:15 PM 30.7 °F - 30.7 °F 100% 30.06 in 0.8 mi Calm Calm - 0.02 in Snow Snow
11:35 PM 31.6 °F 28.3 °F 31.6 °F 100% 30.05 in 1.0 mi East 3.5 mph - 0.05 in Snow Snow
11:50 PM 30.9 °F 27.5 °F 30.9 °F 100% 30.04 in 1.0 mi NE 3.5 mph - 0.07 in Snow Snow